This is the latest recevied weather packets stored in our database for station/object PY2FGD-15. If no packets are shown the sender has not sent any weather packets the latest 10 day(s).
| Time | Temp. | Humidity | Pressure | Rain* | Wind** | Luminosity | Snow |
|---|---|---|---|---|---|---|---|
| 1778017208 | 22.78° C | 75% | 1019 hPa | 2.54 mm | - | - | - |
| 1778014806 | 22.78° C | 74% | 1018 hPa | 2.54 mm | - | - | - |
| 1778013603 | 23.33° C | 72% | 1018 hPa | 2.54 mm | - | - | - |
| 1778011803 | 25.56° C | 61% | 1018 hPa | 2.54 mm | - | - | - |
| 1778011206 | 26.11° C | 61% | 1018 hPa | 2.54 mm | - | - | - |
| 1778008803 | 27.78° C | 61% | 1018 hPa | 2.54 mm | - | - | - |
| 1778007606 | 28.33° C | 61% | 1018 hPa | 2.54 mm | - | - | - |
| 1778005204 | 29.44° C | 61% | 1018 hPa | 2.54 mm | - | - | - |
| 1777998604 | 28.33° C | 63% | 1020 hPa | 2.54 mm | - | - | - |
| 1777998003 | 28.33° C | 63% | 1020 hPa | 2.54 mm | - | - | - |
| 1777992603 | 26.67° C | 62% | 1020 hPa | 2.54 mm | - | - | - |
| 1777987204 | 21.67° C | 79% | 1021 hPa | 2.54 mm | - | - | - |
| 1777984203 | 20.56° C | 82% | 1021 hPa | 2.54 mm | - | - | - |
| 1777983003 | 20.56° C | 83% | 1021 hPa | 2.54 mm | - | - | - |
| 1777982406 | 20.56° C | 85% | 1021 hPa | 2.54 mm | - | - | - |
| 1777981204 | 20.56° C | 86% | 1021 hPa | 2.54 mm | - | - | - |
| 1777977605 | 19.44° C | 87% | 1020 hPa | 2.54 mm | - | - | - |
| 1777959603 | 23.33° C | 89% | 1020 hPa | 2.54 mm | - | - | - |
| 1777959008 | 23.33° C | 89% | 1020 hPa | 2.54 mm | - | - | - |
| 1777958403 | 22.78° C | 88% | 1020 hPa | 2.54 mm | - | - | - |
| 1777957204 | 23.33° C | 89% | 1020 hPa | 2.54 mm | - | - | - |
| 1777955408 | 23.33° C | 89% | 1020 hPa | 2.54 mm | - | - | - |
| 1777953604 | 23.33° C | 89% | 1020 hPa | 2.54 mm | - | - | - |
| 1777952404 | 13.89° C | 87% | 1020 hPa | 2.54 mm | - | - | - |
| 1777951208 | 15° C | 87% | 1020 hPa | 2.54 mm | - | - | - |
* Rain latest hour (hover to see other rain measurements)
** Current wind speed in m/s (hover to see current wind gust speed)